Meteo pe oră la Dzieslaw

Astăzi, 27 Februarie, Sâmbătă

Timp Temperatura Precipitaţii Vânt Presiune Umiditate
00:00 +3°C° 0 mm 5 m/s 763 mmHg 86%
01:00 +3°C° 0 mm 4 m/s 763 mmHg 89%
02:00 +3°C° 0 mm 4 m/s 763 mmHg 90%
03:00 +1°C° 0 mm 5 m/s 763 mmHg 92%
04:00 +1°C° 0 mm 5 m/s 763 mmHg 93%
05:00 +1°C° 0 mm 5 m/s 764 mmHg 93%
06:00 +1°C° 0 mm 5 m/s 764 mmHg 92%
07:00 +1°C° 0 mm 5 m/s 764 mmHg 92%
08:00 +1°C° 0 mm 5 m/s 765 mmHg 91%
09:00 +1°C° 0 mm 5 m/s 765 mmHg 90%
10:00 +1°C° 0 mm 5 m/s 765 mmHg 88%
11:00 +2°C° 0 mm 5 m/s 766 mmHg 86%
12:00 +2°C° 0 mm 5 m/s 766 mmHg 84%
13:00 +2°C° 0 mm 5 m/s 766 mmHg 81%
14:00 +3°C° 0 mm 5 m/s 766 mmHg 80%
15:00 +3°C° 0 mm 5 m/s 766 mmHg 78%
16:00 +3°C° 0 mm 5 m/s 766 mmHg 77%
17:00 +4°C° 0 mm 4 m/s 766 mmHg 81%
18:00 +3°C° 0 mm 4 m/s 766 mmHg 85%
19:00 +2°C° 0 mm 3 m/s 767 mmHg 89%
20:00 +2°C° 0 mm 3 m/s 767 mmHg 89%
21:00 +1°C° 0 mm 4 m/s 767 mmHg 88%
22:00 +1°C° 0 mm 4 m/s 767 mmHg 88%
23:00 +1°C° 0 mm 4 m/s 767 mmHg 88%

Mâine, 28 Februarie, Duminică

Timp Temperatura Precipitaţii Vânt Presiune Umiditate
00:00 +1°C° 0 mm 4 m/s 768 mmHg 89%
01:00 +1°C° 0 mm 4 m/s 768 mmHg 90%
02:00 +2°C° 0 mm 3 m/s 767 mmHg 89%
03:00 +2°C° 0 mm 3 m/s 767 mmHg 88%
04:00 +2°C° 0 mm 3 m/s 767 mmHg 87%
05:00 +1°C° 0 mm 3 m/s 767 mmHg 89%
06:00 +1°C° 0 mm 3 m/s 767 mmHg 91%
07:00 0°C° 0 mm 3 m/s 767 mmHg 93%
08:00 +1°C° 0 mm 3 m/s 767 mmHg 89%
09:00 +2°C° 0 mm 3 m/s 766 mmHg 85%
10:00 +4°C° 0 mm 4 m/s 766 mmHg 81%
11:00 +5°C° 0 mm 4 m/s 766 mmHg 77%
12:00 +6°C° 0 mm 4 m/s 766 mmHg 74%
13:00 +7°C° 0 mm 4 m/s 766 mmHg 70%
14:00 +7°C° 0 mm 4 m/s 766 mmHg 71%
15:00 +8°C° 0 mm 4 m/s 765 mmHg 71%
16:00 +8°C° 0 mm 4 m/s 765 mmHg 71%
17:00 +8°C° 0 mm 3 m/s 765 mmHg 78%
18:00 +5°C° 0 mm 3 m/s 765 mmHg 84%
19:00 +5°C° 0 mm 2 m/s 766 mmHg 91%
20:00 +5°C° 0 mm 2 m/s 766 mmHg 92%
21:00 +4°C° 0 mm 2 m/s 766 mmHg 93%
22:00 +4°C° 0 mm 1 m/s 766 mmHg 94%
23:00 +4°C° 0 mm 1 m/s 766 mmHg 94%

Poimâine, 1 Martie, Luni

Timp Temperatura Precipitaţii Vânt Presiune Umiditate
00:00 +4°C° 0 mm 1 m/s 766 mmHg 94%
01:00 +3°C° 0 mm 1 m/s 767 mmHg 94%
02:00 +2°C° 0 mm 0 m/s 767 mmHg 94%
03:00 +2°C° 0 mm 0 m/s 767 mmHg 94%
04:00 +2°C° 0 mm 0 m/s 766 mmHg 94%
05:00 +1°C° 0 mm 0 m/s 767 mmHg 94%
06:00 +1°C° 0 mm 0 m/s 767 mmHg 94%
07:00 +1°C° 0 mm 0 m/s 767 mmHg 93%
08:00 +3°C° 0 mm 0 m/s 767 mmHg 87%
09:00 +5°C° 0 mm 0 m/s 767 mmHg 81%
10:00 +6°C° 0 mm 0 m/s 768 mmHg 75%
11:00 +8°C° 0 mm 1 m/s 767 mmHg 69%
12:00 +10°C° 0 mm 1 m/s 767 mmHg 64%
13:00 +11°C° 0 mm 1 m/s 767 mmHg 58%
14:00 +11°C° 0 mm 1 m/s 767 mmHg 57%
15:00 +11°C° 0 mm 1 m/s 767 mmHg 56%
16:00 +11°C° 0 mm 1 m/s 766 mmHg 55%
17:00 +10°C° 0 mm 1 m/s 766 mmHg 60%
18:00 +9°C° 0 mm 1 m/s 766 mmHg 64%
19:00 +8°C° 0 mm 1 m/s 767 mmHg 69%
20:00 +7°C° 0 mm 1 m/s 767 mmHg 72%
21:00 +7°C° 0 mm 1 m/s 767 mmHg 74%
22:00 +5°C° 0 mm 2 m/s 767 mmHg 76%
23:00 +6°C° 0 mm 1 m/s 767 mmHg 78%

2 Martie, Marţi

Timp Temperatura Precipitaţii Vânt Presiune Umiditate
00:00 +6°C° 0 mm 1 m/s 767 mmHg 79%
01:00 +5°C° 0 mm 1 m/s 767 mmHg 81%
02:00 +5°C° 0 mm 1 m/s 766 mmHg 82%
03:00 +5°C° 0 mm 1 m/s 766 mmHg 83%
04:00 +4°C° 0 mm 1 m/s 766 mmHg 84%
05:00 +4°C° 0 mm 1 m/s 766 mmHg 84%
06:00 +4°C° 0 mm 1 m/s 766 mmHg 84%
07:00 +4°C° 0 mm 1 m/s 766 mmHg 84%
08:00 +5°C° 0 mm 1 m/s 766 mmHg 77%
09:00 +7°C° 0 mm 1 m/s 766 mmHg 70%
10:00 +9°C° 0 mm 1 m/s 766 mmHg 63%
11:00 +9°C° 0 mm 0 m/s 766 mmHg 59%
12:00 +10°C° 0 mm 0 m/s 766 mmHg 54%
13:00 +12°C° 0 mm 0 m/s 765 mmHg 50%
14:00 +12°C° 0 mm 0 m/s 765 mmHg 50%
15:00 +13°C° 0 mm 1 m/s 765 mmHg 50%
16:00 +13°C° 0 mm 1 m/s 765 mmHg 49%
17:00 +11°C° 0 mm 1 m/s 764 mmHg 54%
18:00 +10°C° 0 mm 1 m/s 764 mmHg 59%
19:00 +9°C° 0 mm 1 m/s 764 mmHg 63%
20:00 +8°C° 0 mm 1 m/s 764 mmHg 66%
21:00 +8°C° 0 mm 1 m/s 765 mmHg 68%
22:00 +7°C° 0 mm 1 m/s 765 mmHg 70%
23:00 +7°C° 0 mm 1 m/s 765 mmHg 72%

3 Martie, Miercuri

Timp Temperatura Precipitaţii Vânt Presiune Umiditate
00:00 +6°C° 0 mm 1 m/s 764 mmHg 73%
01:00 +6°C° 0 mm 1 m/s 764 mmHg 75%
02:00 +5°C° 0 mm 1 m/s 764 mmHg 77%
03:00 +5°C° 0 mm 1 m/s 764 mmHg 79%
04:00 +5°C° 0 mm 1 m/s 764 mmHg 81%
05:00 +4°C° 0 mm 1 m/s 764 mmHg 81%
06:00 +4°C° 0 mm 1 m/s 764 mmHg 82%
07:00 +4°C° 0 mm 1 m/s 763 mmHg 83%
08:00 +6°C° 0 mm 1 m/s 764 mmHg 76%
09:00 +8°C° 0 mm 1 m/s 764 mmHg 69%
10:00 +9°C° 0 mm 1 m/s 764 mmHg 62%
11:00 +11°C° 0 mm 1 m/s 763 mmHg 58%
12:00 +12°C° 0 mm 1 m/s 763 mmHg 54%
13:00 +13°C° 0 mm 2 m/s 763 mmHg 50%
14:00 +13°C° 0 mm 2 m/s 762 mmHg 51%
15:00 +13°C° 0 mm 2 m/s 762 mmHg 52%
16:00 +13°C° 0 mm 2 m/s 762 mmHg 53%
17:00 +12°C° 0 mm 1 m/s 761 mmHg 59%
18:00 +10°C° 0 mm 1 m/s 761 mmHg 65%
19:00 +9°C° 0 mm 1 m/s 761 mmHg 71%
20:00 +7°C° 0 mm 2 m/s 761 mmHg 74%
21:00 +7°C° 0 mm 2 m/s 761 mmHg 77%
22:00 +6°C° 0 mm 2 m/s 761 mmHg 80%
23:00 +6°C° 0 mm 2 m/s 760 mmHg 82%

4 Martie, Joi

Timp Temperatura Precipitaţii Vânt Presiune Umiditate
00:00 +5°C° 0 mm 2 m/s 760 mmHg 84%
01:00 +5°C° 0 mm 2 m/s 759 mmHg 86%
02:00 +5°C° 0 mm 2 m/s 759 mmHg 87%
03:00 +5°C° 0 mm 2 m/s 758 mmHg 88%
04:00 +4°C° 0 mm 2 m/s 758 mmHg 89%
05:00 +4°C° 0 mm 2 m/s 757 mmHg 89%
06:00 +4°C° 0 mm 2 m/s 757 mmHg 90%
07:00 +4°C° 0 mm 2 m/s 756 mmHg 90%
08:00 +5°C° 0 mm 3 m/s 756 mmHg 84%
09:00 +8°C° 0 mm 3 m/s 756 mmHg 77%
10:00 +8°C° 0 mm 4 m/s 755 mmHg 70%
11:00 +10°C° 0 mm 4 m/s 755 mmHg 72%
12:00 +10°C° 0 mm 4 m/s 754 mmHg 73%
13:00 +10°C° 0 mm 4 m/s 754 mmHg 74%
14:00 +9°C° 0.1 mm 5 m/s 754 mmHg 74%
15:00 +9°C° 0.1 mm 5 m/s 753 mmHg 74%
16:00 +9°C° 0.1 mm 5 m/s 753 mmHg 74%
17:00 +8°C° 0.2 mm 5 m/s 753 mmHg 77%
18:00 +7°C° 0.2 mm 5 m/s 753 mmHg 80%
19:00 +7°C° 0.2 mm 5 m/s 753 mmHg 84%
20:00 +6°C° 0.3 mm 5 m/s 753 mmHg 84%
21:00 +6°C° 0.3 mm 5 m/s 753 mmHg 84%
22:00 +5°C° 0.3 mm 5 m/s 754 mmHg 85%
23:00 +5°C° 0.1 mm 4 m/s 754 mmHg 86%
Arată mai mult

Formular de consimțământ

Meteoprog și furnizorii noștri de servicii pot stoca și accesa date personale, precum cookies, identificatori de dispozitiv sau alte tehnologii similare pe dispozitivul dumneavoastră și procesa astfel de date pentru a personaliza conținutul și reclamele, dar și pentru a oferi caracteristici de social media și pentru a analiza traficul.

  • Stocarea și/sau accesarea informațiilor pe dispozitivul dumneavoastră

    Cookies, identificatori de dispozitiv sau alte informații pot fi stocate sau accesate pe dispozitiv în scopurile indicate mai sus.

  • Reclame și conținut personalizat, evaluarea reclamelor și a conținutului, informații despre audiențe și dezvoltarea produselor

    Reclamele și conținutul pot fi personalizate pe baza unui profil. Pot fi adăugate date suplimentare pentru a personaliza mai bine reclamele și conținutul. Performanța reclamelor și conținutului poate fi măsurată. Pot fi obținute informații despre utilizatorii care au văzut reclamele și conținutul. Aceste date pot fi utilizate pentru a dezvolta sau îmbunătăți experiența utilizatorilor, sistemele și software-ul.

Dând clic pe ‘Sunt de acord’, permiteți utilizarea cookie-urilor menționate, a identificatorilor de dispozitiv, balizelor web sau altor tehnologii similare. Setările pot fi modificate din browser-ul dispozitivului dumneavoastră.

În anumite scopuri, interesele legitime pot prima asupra consimțământului. Puteți citi mai multe informații în acest sens în Politica privind Confidențialitatea Datelor și Cookie.